Weather in Yalutorovsk

Russia / Tyumen Oblast     56°39′16″N   66°18′43″E
temp.,
°C
wind,
m/s
gust,
m/s
humid.,
%
clouds,
%
prec.,
mm/h
press.,
hPa
HPBL,
m
26 january, tue
tue2623:00−14s479693 0.4 1029221
02:00−8ssw3696100 0.7 1027176
05:00−2wsw51196100 1.1 1026455
08:00−1wsw61196100 1.1 1024463
11:00−1wsw5109396 1.3 1024505
14:00−1wsw5993100 0.0 1024474
17:00−1wsw5994100 0.1 1024418
20:00−3wsw5109399 0.0 1025317
27 january, wed
wed2723:00−4wsw51192100 0.0 1025413
02:00−6wsw5119199 0.0 1025350
05:00−6wsw5119188 0.0 1025288
08:00−8wsw499259 0.0 1026204
11:00−8wsw4109229 0.0 1027279
14:00−5wsw489260 0.0 1027403
17:00−5wsw489377 0.0 1027270
20:00−5wsw3894100 0.1 1028416
28 january, thu
thu2823:00−4sw4895100 0.1 1027415
02:00−8sw479368 0.0 1027133
05:00−6sw5109181 0.0 1026263
08:00−6sw61291100 0.0 1025333
11:00−4sw71485100 0.0 1024438
14:00−2sw71483100 0.0 1022523
17:00−3sw71586100 0.0 1021472
20:00−3sw61586100 0.0 1021487
29 january, fri
fri2923:00−3wsw61387100 0.0 1020435
02:00−4wsw5108999 0.0 1022276
05:00−5wsw4792100 0.0 1023162
08:00−7sw3494100 0.0 102376
11:00−7sw3594100 0.1 1024128
14:00−6sw3593100 0.0 1024240
17:00−8ssw2394100 0.0 102531
20:00−9s2294100 0.0 102521
30 january, sat
sat3023:00−11se2293100 0.0 102721
02:00−12ese2394100 0.0 102733
05:00−13e3494100 0.0 102681
08:00−14e4895100 0.0 1026169
11:00−12ese5992100 0.0 1026328
14:00−10ese5991100 0.0 1025357
17:00−11ese4893100 0.0 1024203
20:00−12e4894100 0.0 1024223